Volver al catálogo

STARLINK-32861

ActivoComunicacionesVLEO
NORAD 62870·PAYLOAD·🇺🇸 United States

Lanzado Feb 1, 2025 desde Vandenberg Space Force Base

Loading…

Próximos Pases (próximas 24 horas)

TLE

ActualizadoSource: CelesTrak SupGP

Época: Sep 14, 2026, 22:55 UTC

1 62870C 25022S   26257.95534722  .00021531  00000+0  63635-3 0  2577
2 62870  53.1588 325.9663 0001133  93.5014 187.1905 15.34369241    19

Sigue STARLINK-32861 en tiempo real con AllMySat

Download on the App Store